Location: Unspecified
(48.8656°N, 0.0000°E)
Time: 04:40:33
(UTC+00:00)

Transit 2A Rocket - Pass Details

Date: 22 June 2019
Orbit: 590 x 913 km, 66.7° (Epoch: 22 August)

Event Time Altitude Azimuth Distance (km) Brightness Sun altitude
Rises 17:26:33 0° 325° (NW) 3,376 9.0 23.1°
Reaches altitude 10° 17:29:18 10° 334° (NNW) 2,388 8.2 22.7°
Maximum altitude 17:34:20 36° 41° (NE) 1,173 5.9 21.9°
Drops below altitude 10° 17:38:56 10° 109° (ESE) 2,175 6.8 21.1°
Sets 17:41:19 0° 118° (ESE) 3,037 7.5 20.7°
